Starlink 34067

operational
NORAD ID: 64115 Int'l Des: 2025-110 Owner: SPXS Country: US Constellation: starlink
LEOCIRCULAR

Über Starlink 34067

Beschreibung wird geladen...

Live-Position

3D-Globus wird geladen...

Nächste Überflüge

Höhenverlauf

Altitude vs Time

uPlot chart will show altitude changes over time

Zweizeiliger Elementsatz

1 64115U 25110V 25354.38529613 .00019376 00000-0 66440-3 0 9991
2 64115 53.1603 34.9102 0001112 63.6627 296.4488 15.30209781 33745
Epoch: 20. Dez. 2025 • Age: 9 hours

Aktueller Status

Höhe 476.1 km
Geschwindigkeit 7.63 km/s
Subsatellitenpunkt -2.37°S, 22.13°E
Startdatum 23. Mai 2025
Alter 0.5 years
Typ internet

Technische Details

Klassifizierung Payload
Masse 575.00 kg
Trockenmasse 530.00 kg
Gesamtmasse 575.00 kg
Länge 0.30 m
Durchmesser 4.10 m
Spannweite 29.00 m
Form Box + pan
Hersteller SPXS
Bus-Typ Starlink V2MO
Phasenstatus In Orbit
Besitzer/Staat SPXS/US

Große Konstellationen

Loading constellations...